Location: Estevelles
(50.4765°N, 2.9093°E)
Time: 08:43:33
(UTC+00:00)

Daily predictions for brighter satellites

Satellite Brightness Start Highest point End
(mag) Time Altitude Azimuth Time Altitude Azimuth Time Altitude Azimuth
SPOT 3 Rocket 3.8 20:35:02 10° SSE 20:40:03 58° ENE 20:45:07 10° N
Aureole 2 4.0 20:38:20 10° SSW 20:41:14 78° WNW 20:44:01 10° NNE
YAOGAN 11 4.2 20:38:12 10° NNE 20:42:37 58° ESE 20:46:58 10° S
NOSS 2-2 (D) 3.6 20:39:32 10° WSW 20:42:46 54° NW 20:45:43 10° NE
Cosmos 2082 4.0 20:38:44 10° SW 20:44:21 75° WNW 20:50:01 10° NNE
Cosmos 2227 4.3 20:39:54 10° S 20:45:30 58° ESE 20:51:09 10° NE
Okean 3 Rocket 4.0 20:41:58 10° N 20:46:20 51° ENE 20:50:37 10° SSE
Meteor 2-20 Rocket 4.4 20:42:18 10° S 20:48:05 78° E 20:54:07 10° NNE
CZ-4 R/B 3.9 20:45:42 10° SW 20:48:17 18° W 20:50:54 10° NW
Cosmos 2263 Rocket 3.9 20:43:25 10° WSW 20:48:36 38° NW 20:53:48 10° NNE
Helios 1A Rocket 3.1 20:45:39 10° N 20:48:43 53° WNW 20:51:45 10° SSW
Ariane Rocket 3.4 20:44:46 10° SE 20:49:42 54° ENE 20:54:39 10° N
IRS-1C Rocket 4.4 20:45:08 10° SE 20:50:15 55° ENE 20:55:23 10° N
Okean-O 3.0 20:46:26 10° S 20:50:47 65° WSW 20:55:08 10° NNW
Cosmos 1805 Rocket 4.3 20:48:31 10° N 20:52:34 38° ENE 20:56:37 10° SE
Spot 2 Rocket 4.0 20:47:40 10° S 20:52:40 59° W 20:57:42 10° NNW
CZ-4B R/B 4.4 20:50:57 10° SSW 20:56:01 39° W 21:01:02 10° NNW
Cosmos 1340 Rocket 2.9 20:52:16 10° N 20:56:01 56° ENE 20:59:41 10° SSE
NOSS 3-2 (A) 3.3 20:51:18 10° SSW 20:56:08 52° ESE 21:01:55 10° NE
Cosmos 1408 Rocket 4.2 20:52:34 10° N 20:56:46 42° ENE 21:00:57 10° SE
Cosmos 1603 3.8 20:52:04 10° NNW 20:57:51 90° SE 21:03:32 10° SSE
Cosmos 1842 Rocket 3.6 20:53:49 10° S 20:58:15 80° E 21:02:42 10° NNE
USA 215 3.5 20:52:06 10° ESE 20:58:36 73° NNE 21:05:08 10° WNW
BREEZE-M DEB (TANK) 3.2 20:59:22 10° WSW 21:00:36 14° SW 21:01:45 10° S
Cosmos 773 Rocket 4.1 20:55:30 10° SSW 21:00:38 86° WNW 21:05:51 10° NNE
Cosmos 1570 Rocket 4.4 21:00:31 10° SSW 21:05:50 72° WNW 21:11:12 10° NNE
USA 245 2.9 21:03:30 10° SSE 21:07:17 86° WSW 21:10:23 10° NNW
Meteor 2-10 Rocket 4.2 21:02:06 10° NNW 21:07:52 64° W 21:13:30 10° S
Cosmos 1844 Rocket 2.6 21:02:20 10° SSW 21:07:54 82° ESE 21:13:30 10° NNE
SL-14 R/B 3.1 21:07:22 10° S 21:11:04 79° E 21:14:49 10° NNE
Cosmos 1238 Rocket 4.3 21:07:56 10° SSW 21:12:38 47° WNW 21:17:12 10° N
Cosmos 1553 Rocket 4.3 21:07:59 10° SSE 21:14:07 52° E 21:20:12 10° NNE
CZ-4C R/B 3.7 21:07:27 10° NW 21:14:07 46° WSW 21:22:14 10° S
Cosmos 1833 Rocket 3.6 21:12:07 10° NNW 21:17:28 41° NE 21:22:47 10° ESE
Cosmos 1151 Rocket 3.3 21:14:37 10° S 21:18:50 52° E 21:23:03 10° NNE
Cosmos 2082 Rocket 4.5 21:18:29 10° N 21:22:03 17° NNE 21:25:35 10° ENE
CZ-2C R/B 2.2 21:23:48 16° SE 21:25:45 51° ENE 21:28:27 10° N
Cosmos 1953 3.4 21:23:59 10° N 21:27:06 27° ENE 21:29:35 14° SE
SL-24 R/B - RUBIN 2 3.6 21:23:55 10° SW 21:28:25 83° NW 21:32:49 10° NE
Cosmos 1844 3.9 21:23:17 10° SSW 21:29:04 80° WNW 21:34:55 10° NNE
CZ-4B R/B 3.6 21:24:45 11° SSE 21:29:41 78° WSW 21:34:54 10° NNW
Okean O Rocket 3.3 21:26:38 10° SSW 21:30:21 28° W 21:34:08 10° NW
Cosmos 1633 Rocket 4.4 21:31:11 10° N 21:34:56 27° ENE 21:38:07 13° ESE
In-Cosmos 22 4.4 21:30:08 10° SSW 21:35:54 80° WNW 21:41:42 10° N
NOSS 3-2 (C) 3.5 21:32:54 10° S 21:37:35 41° ESE 21:43:06 10° NE
Cosmos 1461 3.5 21:39:35 10° NW 21:42:48 34° WSW 21:45:06 16° S
NOSS 2-3 (C) 4.4 21:42:37 18° SE 21:43:34 20° ESE 21:46:14 10° ENE
Cosmos 1745 Rocket 4.2 21:39:47 10° N 21:45:59 61° ENE 21:51:04 16° SSE
CZ-4B R/B 3.9 21:42:37 10° SSW 21:46:14 38° W 21:49:58 10° NNW
Sich 1 4.5 21:49:20 10° NNW 21:53:07 31° W 21:56:54 10° SSW
Cosmos 1500 Rocket 3.9 21:48:56 10° NNW 21:53:12 60° W 21:56:48 14° S
Helios 1A 3.8 21:51:50 10° NNE 21:55:24 32° E 21:57:27 20° SSE
Cosmos 2344 4.1 21:48:58 10° S 21:56:01 35° ESE 22:02:25 10° NE
GP-B 3.1 21:53:19 10° N 21:57:43 80° W 22:01:23 14° S
Iridium 4 Rocket 3.5 21:55:05 14° S 21:59:46 82° E 22:04:50 10° N
Helios 1B rocket 3.5 21:57:42 15° ESE 21:59:50 27° ENE 22:02:47 10° N
Cosmos 1607 4.3 21:54:23 10° NW 22:00:39 59° WSW 22:05:32 17° SSE
ARIANE 5 R/B 4.1 21:59:12 12° ESE 22:02:29 27° ENE 22:06:13 10° N
SWARM C 4.4 22:00:35 10° N 22:03:50 82° E 22:05:40 23° S
SWARM A 4.2 22:00:45 10° N 22:03:58 69° E 22:05:43 25° SSE
Cosmos 2285 Rocket 4.5 22:01:46 10° NNW 22:07:55 54° WSW 22:13:01 15° S
Cosmos 1420 Rocket 4.3 22:04:13 10° NNW 22:09:23 59° ENE 22:13:10 18° SE
NOSS 2-3 (D) 3.2 22:07:03 10° SSW 22:10:39 57° SE 22:14:25 10° NE
ALOS 2 4.0 22:11:55 14° ESE 22:14:58 29° ENE 22:18:47 10° N
Cosmos 1538 Rocket 4.0 22:11:36 14° SSW 22:16:03 70° ESE 22:21:16 10° NNE
Cosmos 2315 Rocket 4.2 22:13:38 18° SSE 22:18:09 57° E 22:24:15 10° NNE
Cosmos 1943 Rocket 3.3 22:16:33 19° SE 22:19:15 27° ESE 22:23:55 10° NE
CENTAUR R/B 4.3 22:13:59 10° W 22:19:46 38° NNW 22:26:56 10° NE
Iridium 45 4.2 22:18:34 24° SSW 22:20:14 71° W 22:23:19 10° N
CZ-2C R/B 4.5 22:22:58 10° NNE 22:27:22 38° E 22:29:46 23° SSE
Cosmos 1328 Rocket 3.5 22:24:39 22° S 22:27:23 72° E 22:31:44 10° NNE
Lacrosse 5 rocket 1.8 22:30:44 29° SSE 22:31:05 29° SE 22:34:12 10° ENE
Cosmos 1666 Rocket 3.6 22:30:36 10° NNW 22:34:56 71° W 22:37:29 24° S
CZ-2C R/B 4.2 22:31:56 10° ESE 22:36:04 25° ENE 22:40:15 10° N
NOSS 2-3 (E) 3.2 22:34:35 10° SW 22:38:14 80° NW 22:42:08 10° NE
Cosmos 1703 4.4 22:37:14 12° SW 22:39:44 29° WNW 22:42:35 10° N
Cosmos 1371 Rocket 4.5 22:34:48 10° NNW 22:40:00 55° ENE 22:43:38 19° SE
USA 215 3.6 22:37:29 20° SSE 22:41:51 50° SW 22:48:11 10° WNW
GEOS 3 Rocket 3.7 22:45:16 21° SE 22:48:58 79° SW 22:54:23 10° NW
Timation 1 Rocket 4.4 22:45:01 10° NW 22:50:59 72° WSW 22:54:45 24° SSE
S3M 4.2 22:48:41 16° SSW 22:53:41 68° WNW 22:59:50 10° N
Cosmos 1515 Rocket 3.7 22:55:38 28° SSE 22:57:45 61° E 23:02:03 10° NNE
Cosmos 2184 Rocket 4.5 22:52:31 10° N 22:58:38 53° ENE 23:02:54 20° SE
ARGOS Delta rocket 4.1 22:53:29 10° NNE 22:58:55 87° ESE 23:02:18 23° S
CSL-04 DEB 4.1 22:57:32 32° SSE 22:59:07 89° WSW 23:02:49 10° NNW
USA 59 Rocket 0.6 23:01:29 25° ESE 23:01:29 25° ESE 23:03:57 10° ENE
Cosmos 1833 Rocket 3.4 22:56:07 10° NW 23:01:25 42° WSW 23:04:36 22° SSW
Cosmos 1953 3.8 22:59:00 10° NW 23:01:54 24° W 23:03:46 16° SW
Spot 4 3.8 22:59:30 26° SSE 23:02:13 89° SW 23:07:06 10° NNW
Meteor 1-16 Rocket 4.4 22:59:48 10° NNW 23:05:14 65° W 23:08:42 24° S
SAR-Lupe-2 4.2 23:05:52 27° ESE 23:07:08 40° ENE 23:10:12 10° N
Cosmos 2082 Rocket 2.7 23:01:51 10° NNW 23:07:25 56° NE 23:11:52 16° SE
Okean 3 3.6 23:09:18 31° SSE 23:10:52 52° E 23:14:46 10° NNE
Meteor 1-23 Rocket 4.4 23:07:55 19° SSW 23:11:56 70° WNW 23:17:31 10° N
Cosmos 1633 Rocket 4.1 23:08:38 10° NNW 23:12:39 36° W 23:15:02 20° SW
Cosmos 2278 Rocket 2.5 23:09:54 25° S 23:12:58 52° ESE 23:18:28 10° NE
Cosmos 1400 Rocket 2.5 23:20:27 10° NNW 23:24:10 79° WSW 23:25:30 37° S
Cosmos 1624 Rocket 4.1 23:19:05 10° NNW 23:24:21 70° WSW 23:27:15 27° S
COSMOS 2406 4.3 23:20:13 10° NNW 23:25:36 41° NE 23:30:57 10° ESE
Cosmos 1680 Rocket 3.4 23:22:43 24° SSW 23:25:57 87° ESE 23:31:12 10° NNE
CZ-2C R/B 3.5 23:21:17 10° NNE 23:26:47 55° E 23:29:38 26° SSE
Cosmos 494 Rocket 4.0 23:24:38 25° SSW 23:27:42 78° ESE 23:32:57 10° NNE
NOSS 3-2 (C) 4.2 23:23:09 10° WSW 23:28:16 49° NNW 23:34:31 10° NE
Cosmos 2056 Rocket 3.6 23:26:04 10° NNW 23:31:06 58° WSW 23:33:38 28° S
Helios 1B rocket 3.5 23:31:35 21° SW 23:32:43 25° W 23:35:39 10° NW
NOSS 2-3 (C) 4.3 23:30:08 10° WSW 23:33:23 41° NW 23:37:01 10° NE
Cosmos 1328 4.5 23:35:16 28° SE 23:36:21 35° E 23:39:39 10° NNE
Cosmos 1812 3.2 23:34:39 10° NNW 23:35:32 24° NNW 23:35:32 24° NNW
ARIANE 5 R/B 3.4 23:36:34 26° SSW 23:38:37 41° W 23:42:51 10° NNW
ACS3 Solar Sail 2.5 23:34:35 10° NNE 23:39:52 37° E 23:43:11 20° SSE
USA 238 DEB 3.5 23:36:16 19° SSW 23:40:53 75° SE 23:47:41 10° NE
USA 238 3.5 23:36:31 19° SSW 23:41:06 75° SE 23:47:53 10° NE
Lacrosse 4 Rocket 4.4 23:39:11 10° N 23:41:30 14° NNE 23:43:48 10° ENE
Okean 2 4.4 23:42:04 20° SW 23:44:12 35° WNW 23:47:46 10° N
Cosmos 546 4.5 23:46:11 16° WSW 23:49:02 64° SSE 23:52:46 10° E
BREEZE-M DEB (TANK) 3.4 23:35:51 10° W 23:49:21 84° S 23:53:25 10° E
ALOS 2 3.5 23:49:18 25° SW 23:51:12 36° W 23:55:18 10° NNW
Cosmos 1933 Rocket 4.1 23:47:52 10° NNW 23:52:01 47° W 23:53:53 28° SSW
Cosmos 1441 Rocket 2.9 23:54:17 40° SW 23:55:16 65° WNW 23:58:30 10° N
